Location: Spondin
(51.8528°N, 111.6118°W)
Time: 02:07:20
(UTC+00:00)

BlueWalker 3 - Visible Passes

Search period start: 29 November 2022 00:00
Search period end: 09 December 2022 00:00
Orbit: 500 x 519 km, 53.2° (Epoch: 28 November)

Date Brightness Start Highest point End Pass type
(mag) Time Alt. Az. Time Alt. Az. Time Alt. Az.
29 Nov 1.9 01:06:26 10° WSW 01:10:21 79° SSE 01:11:54 35° E visible
29 Nov 4.4 02:45:14 10° W 02:46:44 22° W 02:46:44 22° W visible
30 Nov 1.9 00:48:04 10° WSW 00:52:00 81° SSE 00:54:16 24° ENE visible
30 Nov 3.7 02:26:53 10° W 02:29:05 32° WNW 02:29:05 32° WNW visible
01 Dec 2.0 00:29:42 10° WSW 00:33:38 83° SSE 00:36:36 17° ENE visible
01 Dec 2.9 02:08:31 10° W 02:11:26 46° WNW 02:11:26 46° WNW visible
02 Dec 2.0 00:11:20 10° WSW 00:15:16 86° SSE 00:18:57 12° ENE visible
02 Dec 2.1 01:50:09 10° W 01:53:46 67° NW 01:53:46 67° NW visible
02 Dec 2.0 23:52:57 10° WSW 23:56:54 88° SSE 00:00:49 10° ENE visible
03 Dec 1.8 01:31:47 10° W 01:35:42 72° N 01:36:07 64° NE visible
03 Dec 5.2 03:10:33 10° WNW 03:10:56 13° WNW 03:10:56 13° WNW visible
04 Dec 1.9 01:13:24 10° W 01:17:20 73° N 01:18:29 43° ENE visible
04 Dec 4.7 02:52:10 10° WNW 02:53:19 18° W 02:53:19 18° W visible
05 Dec 1.9 00:55:02 10° W 00:58:57 73° N 01:00:54 28° E visible
05 Dec 4.0 02:33:46 10° WNW 02:35:43 27° W 02:35:43 27° W visible
06 Dec 1.9 00:36:38 10° W 00:40:34 74° N 00:43:21 18° E visible
06 Dec 3.2 02:15:23 10° WNW 02:18:11 40° WSW 02:18:11 40° WSW visible
07 Dec 1.9 00:18:14 10° W 00:22:10 75° N 00:25:53 11° E visible
07 Dec 2.6 01:56:59 10° WNW 02:00:43 52° SSW 02:00:43 52° SSW visible
07 Dec 2.0 23:59:49 10° WNW 00:03:46 76° N 00:07:40 10° E visible
08 Dec 2.7 01:38:35 10° WNW 01:42:22 50° SSW 01:43:22 39° SSE visible
